| time (UTC) | temp F | wind direction | speed MPH | gust MPH | rain 1hr in | rain 24hr in | rain mn in | humidity % | barometer mb |
| 20260503213519 | 52 | 79 | 3.0 | 7.0 | 0.00 | 0.00 | 0.00 | 41 | 1009.3 |
| 20260503213037 | 52 | 56 | 3.0 | 8.0 | 0.00 | 0.00 | 0.00 | 41 | 1009.3 |
| 20260503212518 | 51 | 212 | 3.0 | 8.0 | 0.00 | 0.00 | 0.00 | 42 | 1009.4 |
| 20260503212017 | 51 | 4 | 2.0 | 7.0 | 0.00 | 0.00 | 0.00 | 45 | 1009.4 |
| 20260503211540 | 51 | 95 | 3.0 | 6.0 | 0.00 | 0.00 | 0.00 | 43 | 1009.2 |
| 20260503211019 | 50 | 56 | 2.0 | 10.0 | 0.00 | 0.00 | 0.00 | 44 | 1009.3 |
| 20260503210516 | 50 | 338 | 2.0 | 10.0 | 0.00 | 0.00 | 0.00 | 43 | 1009.3 |
| 20260503210035 | 50 | 325 | 2.0 | 6.0 | 0.00 | 0.00 | 0.00 | 43 | 1009.4 |
| 20260503205524 | 50 | 353 | 2.0 | 8.0 | 0.00 | 0.00 | 0.00 | 45 | 1009.2 |
| 20260503205020 | 49 | 225 | 3.0 | 8.0 | 0.00 | 0.00 | 0.00 | 44 | 1009.3 |
| 20260503204534 | 49 | 28 | 2.0 | 10.0 | 0.00 | 0.00 | 0.00 | 45 | 1009.4 |
| 20260503204017 | 49 | 143 | 3.0 | 10.0 | 0.00 | 0.00 | 0.00 | 46 | 1009.5 |
| 20260503203519 | 49 | 308 | 5.0 | 10.0 | 0.00 | 0.00 | 0.00 | 45 | 1009.6 |
| 20260503203034 | 49 | 98 | 4.0 | 9.0 | 0.00 | 0.00 | 0.00 | 43 | 1009.4 |
| 20260503202520 | 50 | 96 | 3.0 | 8.0 | 0.00 | 0.00 | 0.00 | 47 | 1009.5 |
| 20260503202017 | 49 | 54 | 2.0 | 9.0 | 0.00 | 0.00 | 0.00 | 45 | 1009.5 |
| 20260503201538 | 49 | 144 | 4.0 | 9.0 | 0.00 | 0.00 | 0.00 | 44 | 1009.5 |
| 20260503201017 | 50 | 57 | 4.0 | 8.0 | 0.00 | 0.00 | 0.00 | 47 | 1009.4 |
| 20260503200518 | 50 | 206 | 2.0 | 5.0 | 0.00 | 0.00 | 0.00 | 45 | 1009.5 |
| 20260503200037 | 50 | 175 | 1.0 | 11.0 | 0.00 | 0.00 | 0.00 | 47 | 1009.6 |
| 20260503195521 | 49 | 107 | 1.0 | 11.0 | 0.00 | 0.00 | 0.00 | 47 | 1009.5 |
| 20260503195017 | 50 | 54 | 2.0 | 8.0 | 0.00 | 0.00 | 0.00 | 45 | 1009.7 |
| 20260503194542 | 49 | 15 | 2.0 | 11.0 | 0.00 | 0.00 | 0.00 | 46 | 1009.8 |
| 20260503194019 | 49 | 253 | 4.0 | 11.0 | 0.00 | 0.00 | 0.00 | 45 | 1009.9 |
| 20260503193516 | 49 | 55 | 2.0 | 10.0 | 0.00 | 0.00 | 0.00 | 46 | 1009.9 |
| 20260503193041 | 49 | 279 | 4.0 | 10.0 | 0.00 | 0.00 | 0.00 | 44 | 1010.2 |
| 20260503192516 | 49 | 293 | 2.0 | 10.0 | 0.00 | 0.00 | 0.00 | 45 | 1010.0 |
| 20260503192018 | 48 | 100 | 3.0 | 9.0 | 0.00 | 0.00 | 0.00 | 45 | 1010.3 |
| 20260503191536 | 48 | 340 | 3.0 | 11.0 | 0.00 | 0.00 | 0.00 | 45 | 1010.1 |
| 20260503191023 | 49 | 105 | 4.0 | 12.0 | 0.00 | 0.00 | 0.00 | 44 | 1010.2 |
| 20260503190517 | 49 | 222 | 6.0 | 12.0 | 0.00 | 0.00 | 0.00 | 44 | 1010.3 |
| 20260503190042 | 48 | 100 | 3.0 | 8.0 | 0.00 | 0.00 | 0.00 | 46 | 1010.3 |
| 20260503185518 | 48 | 257 | 3.0 | 11.0 | 0.00 | 0.00 | 0.00 | 46 | 1010.4 |
| 20260503185019 | 48 | 23 | 5.0 | 15.0 | 0.00 | 0.00 | 0.00 | 46 | 1010.2 |
| 20260503184531 | 48 | 238 | 3.0 | 15.0 | 0.00 | 0.00 | 0.00 | 48 | 1010.4 |
| 20260503184018 | 48 | 15 | 3.0 | 12.0 | 0.00 | 0.00 | 0.00 | 48 | 1010.6 |
| 20260503183520 | 48 | 184 | 2.0 | 12.0 | 0.00 | 0.00 | 0.00 | 46 | 1010.3 |
| 20260503183031 | 48 | 218 | 3.0 | 8.0 | 0.00 | 0.00 | 0.00 | 45 | 1010.4 |
| 20260503182523 | 48 | 264 | 2.0 | 8.0 | 0.00 | 0.00 | 0.00 | 49 | 1010.6 |
| 20260503182017 | 48 | 278 | 3.0 | 13.0 | 0.00 | 0.00 | 0.00 | 47 | 1010.4 |
| 20260503181538 | 47 | 79 | 3.0 | 13.0 | 0.00 | 0.00 | 0.00 | 47 | 1010.5 |
| 20260503181018 | 47 | 24 | 4.0 | 8.0 | 0.00 | 0.00 | 0.00 | 47 | 1010.5 |
| 20260503180518 | 47 | 334 | 3.0 | 11.0 | 0.00 | 0.00 | 0.00 | 51 | 1010.5 |
| 20260503180036 | 47 | 245 | 2.0 | 11.0 | 0.00 | 0.00 | 0.00 | 47 | 1010.4 |
| 20260503175517 | 47 | 354 | 5.0 | 11.0 | 0.00 | 0.00 | 0.00 | 46 | 1010.3 |
| 20260503175022 | 47 | 335 | 4.0 | 11.0 | 0.00 | 0.00 | 0.00 | 45 | 1010.5 |
| 20260503174549 | 47 | 79 | 3.0 | 10.0 | 0.00 | 0.00 | 0.00 | 48 | 1010.3 |
| 20260503174016 | 47 | 144 | 3.0 | 13.0 | 0.00 | 0.00 | 0.00 | 49 | 1010.5 |
| 20260503173520 | 46 | 235 | 3.0 | 13.0 | 0.00 | 0.00 | 0.00 | 49 | 1010.4 |
| 20260503173040 | 46 | 295 | 3.0 | 9.0 | 0.00 | 0.00 | 0.00 | 48 | 1010.6 |
| 20260503172518 | 46 | 275 | 4.0 | 10.0 | 0.00 | 0.00 | 0.00 | 48 | 1010.5 |
| 20260503172019 | 46 | 12 | 2.0 | 10.0 | 0.00 | 0.00 | 0.00 | 50 | 1010.6 |
| 20260503171537 | 46 | 122 | 5.0 | 11.0 | 0.00 | 0.00 | 0.00 | 48 | 1010.5 |
| 20260503171019 | 46 | 280 | 3.0 | 11.0 | 0.00 | 0.00 | 0.00 | 48 | 1010.4 |
| 20260503170519 | 47 | 309 | 4.0 | 11.0 | 0.00 | 0.00 | 0.00 | 48 | 1010.4 |
| 20260503150518 | 44 | 174 | 1.0 | 10.0 | 0.00 | 0.05 | 0.00 | 59 | 1010.7 |
| 20260503131015 | 42 | 276 | 3.0 | 11.0 | 0.00 | 0.05 | 0.00 | 73 | 1011.4 |
| 20260503130518 | 42 | 290 | 1.0 | 11.0 | 0.00 | 0.05 | 0.00 | 74 | 1011.4 |
| 20260503110521 | 39 | 345 | 1.0 | 2.0 | 0.00 | 0.10 | 0.00 | 84 | 1011.1 |
| 20260503081545 | 39 | 330 | 1.0 | 4.0 | 0.00 | 0.13 | 0.00 | 79 | 1011.1 |
| 20260503081015 | 39 | 77 | 1.0 | 4.0 | 0.00 | 0.13 | 0.00 | 78 | 1011.2 |
| 20260503080519 | 39 | 6 | 1.0 | 3.0 | 0.00 | 0.13 | 0.00 | 78 | 1011.2 |
| 20260503072520 | 38 | 353 | 0.0 | 1.0 | 0.00 | 0.15 | 0.00 | 81 | 1011.4 |
| 20260503072018 | 38 | 0 | 0.0 | 1.0 | 0.00 | 0.15 | 0.00 | 81 | 1011.5 |
| 20260503071541 | 39 | 350 | 0.0 | 1.0 | 0.00 | 0.15 | 0.00 | 82 | 1011.5 |
| 20260503071018 | 39 | 0 | 0.0 | 1.0 | 0.00 | 0.15 | 0.00 | 81 | 1011.6 |
| 20260503070515 | 39 | 0 | 0.0 | 1.0 | 0.00 | 0.15 | 0.00 | 81 | 1011.5 |
| 20260503055020 | 38 | 0 | 0.0 | 1.0 | 0.00 | 0.20 | 0.00 | 79 | 1012.0 |
| 20260503054537 | 38 | 0 | 0.0 | 1.0 | 0.00 | 0.20 | 0.00 | 79 | 1012.1 |
| 20260503054022 | 38 | 0 | 0.0 | 1.0 | 0.00 | 0.20 | 0.00 | 79 | 1012.1 |
| 20260503053520 | 38 | 0 | 0.0 | 0.0 | 0.00 | 0.20 | 0.00 | 79 | 1012.0 |
| 20260503053037 | 38 | 0 | 0.0 | 0.0 | 0.00 | 0.20 | 0.00 | 81 | 1012.2 |
| 20260503052518 | 38 | 0 | 0.0 | 0.0 | 0.00 | 0.20 | 0.00 | 81 | 1012.3 |
| 20260503052026 | 38 | 0 | 0.0 | 0.0 | 0.00 | 0.20 | 0.00 | 80 | 1012.3 |
| 20260503051535 | 38 | 0 | 0.0 | 0.0 | 0.00 | 0.20 | 0.00 | 82 | 1012.4 |
| 20260503051017 | 38 | 0 | 0.0 | 0.0 | 0.00 | 0.20 | 0.00 | 83 | 1012.3 |
| 20260503050521 | 38 | 0 | 0.0 | 0.0 | 0.00 | 0.20 | 0.00 | 83 | 1012.5 |
| 20260503050035 | 38 | 0 | 0.0 | 0.0 | 0.00 | 0.20 | 0.00 | 83 | 1012.4 |
| 20260503045520 | 38 | 0 | 0.0 | 0.0 | 0.00 | 0.34 | 0.00 | 82 | 1012.5 |
| 20260503045019 | 38 | 0 | 0.0 | 0.0 | 0.00 | 0.34 | 0.00 | 81 | 1012.5 |
| 20260503044545 | 38 | 0 | 0.0 | 1.0 | 0.00 | 0.34 | 0.00 | 81 | 1012.5 |
| 20260503044021 | 38 | 0 | 0.0 | 1.0 | 0.00 | 0.34 | 0.00 | 81 | 1012.5 |
| 20260503043521 | 38 | 0 | 0.0 | 1.0 | 0.00 | 0.34 | 0.00 | 82 | 1012.7 |
| 20260503043037 | 38 | 0 | 0.0 | 1.0 | 0.00 | 0.34 | 0.00 | 83 | 1012.7 |
| 20260503042518 | 38 | 23 | 0.0 | 1.0 | 0.00 | 0.34 | 0.00 | 84 | 1012.8 |
| 20260503042021 | 38 | 0 | 0.0 | 1.0 | 0.00 | 0.34 | 0.00 | 83 | 1012.8 |
| 20260503041537 | 38 | 0 | 0.0 | 1.0 | 0.00 | 0.34 | 0.00 | 84 | 1012.7 |
| 20260503041021 | 37 | 0 | 0.0 | 1.0 | 0.00 | 0.34 | 0.00 | 82 | 1012.8 |
| 20260503040520 | 37 | 338 | 0.0 | 1.0 | 0.00 | 0.34 | 0.00 | 82 | 1012.9 |
| 20260503040036 | 37 | 351 | 0.0 | 1.0 | 0.00 | 0.34 | 0.00 | 84 | 1012.8 |
| 20260503035520 | 37 | 0 | 0.0 | 1.0 | 0.00 | 0.38 | 0.34 | 83 | 1013.0 |
| 20260503035020 | 37 | 351 | 0.0 | 1.0 | 0.00 | 0.38 | 0.34 | 84 | 1013.0 |
| 20260503034540 | 36 | 350 | 0.0 | 2.0 | 0.00 | 0.38 | 0.34 | 85 | 1013.0 |
| 20260503034018 | 36 | 353 | 0.0 | 2.0 | 0.00 | 0.38 | 0.34 | 85 | 1013.1 |
| 20260503033519 | 36 | 352 | 0.0 | 2.0 | 0.00 | 0.38 | 0.34 | 85 | 1013.2 |
| 20260503033042 | 36 | 4 | 0.0 | 1.0 | 0.00 | 0.38 | 0.34 | 84 | 1013.1 |
| 20260503032521 | 36 | 0 | 0.0 | 1.0 | 0.00 | 0.38 | 0.34 | 84 | 1013.2 |
| 20260503032018 | 36 | 29 | 0.0 | 1.0 | 0.00 | 0.38 | 0.34 | 84 | 1013.2 |
| 20260503031535 | 36 | 0 | 0.0 | 1.0 | 0.00 | 0.38 | 0.34 | 83 | 1013.2 |
| 20260503031019 | 36 | 0 | 0.0 | 1.0 | 0.00 | 0.38 | 0.34 | 83 | 1013.2 |
| 20260503030522 | 35 | 345 | 1.0 | 1.0 | 0.00 | 0.38 | 0.34 | 83 | 1013.3 |
| 20260503030042 | 35 | 344 | 0.0 | 1.0 | 0.00 | 0.38 | 0.34 | 85 | 1013.4 |
| 20260503025521 | 35 | 344 | 0.0 | 1.0 | 0.00 | 0.38 | 0.34 | 85 | 1013.3 |
| 20260503025018 | 35 | 349 | 0.0 | 1.0 | 0.00 | 0.38 | 0.34 | 83 | 1013.3 |
| 20260503024537 | 35 | 349 | 0.0 | 1.0 | 0.00 | 0.38 | 0.34 | 84 | 1013.2 |
| 20260503024021 | 36 | 0 | 0.0 | 1.0 | 0.00 | 0.38 | 0.34 | 83 | 1013.3 |
| 20260503023520 | 36 | 0 | 0.0 | 2.0 | 0.00 | 0.38 | 0.34 | 81 | 1013.2 |
| 20260503023037 | 36 | 0 | 0.0 | 2.0 | 0.00 | 0.38 | 0.34 | 82 | 1013.3 |
| 20260503022518 | 36 | 50 | 0.0 | 2.0 | 0.00 | 0.38 | 0.34 | 82 | 1013.3 |
| 20260503022020 | 36 | 28 | 0.0 | 1.0 | 0.00 | 0.38 | 0.34 | 80 | 1013.3 |
| 20260503021535 | 36 | 349 | 0.0 | 4.0 | 0.00 | 0.38 | 0.34 | 81 | 1013.3 |
| 20260503021019 | 37 | 38 | 1.0 | 4.0 | 0.00 | 0.38 | 0.34 | 80 | 1013.4 |
| 20260503020520 | 36 | 321 | 0.0 | 2.0 | 0.00 | 0.38 | 0.34 | 82 | 1013.4 |
| 20260503020034 | 36 | 0 | 1.0 | 2.0 | 0.00 | 0.38 | 0.34 | 82 | 1013.4 |
| 20260503015518 | 37 | 17 | 0.0 | 2.0 | 0.00 | 0.38 | 0.34 | 81 | 1013.5 |
| 20260503015018 | 37 | 317 | 0.0 | 1.0 | 0.00 | 0.38 | 0.34 | 80 | 1013.5 |
| 20260503014541 | 37 | 0 | 0.0 | 1.0 | 0.00 | 0.38 | 0.34 | 81 | 1013.5 |
| 20260503014018 | 37 | 328 | 0.0 | 3.0 | 0.00 | 0.38 | 0.34 | 82 | 1013.6 |
| 20260503013518 | 37 | 0 | 0.0 | 3.0 | 0.00 | 0.38 | 0.34 | 82 | 1013.5 |
| 20260503013037 | 38 | 0 | 1.0 | 3.0 | 0.00 | 0.38 | 0.34 | 80 | 1013.6 |
| 20260503012519 | 38 | 0 | 0.0 | 1.0 | 0.00 | 0.38 | 0.34 | 81 | 1013.7 |
| 20260503012022 | 38 | 330 | 0.0 | 1.0 | 0.00 | 0.38 | 0.34 | 79 | 1013.6 |
| 20260503011537 | 38 | 271 | 0.0 | 1.0 | 0.00 | 0.38 | 0.34 | 79 | 1013.7 |
| 20260503011018 | 39 | 0 | 0.0 | 1.0 | 0.00 | 0.38 | 0.34 | 78 | 1013.7 |
| 20260503010521 | 39 | 0 | 0.0 | 2.0 | 0.00 | 0.38 | 0.34 | 79 | 1013.6 |
| 20260503010037 | 39 | 48 | 1.0 | 2.0 | 0.00 | 0.38 | 0.34 | 76 | 1013.4 |
| 20260503005519 | 40 | 335 | 0.0 | 2.0 | 0.00 | 0.38 | 0.34 | 76 | 1013.4 |
| 20260503005021 | 41 | 243 | 0.0 | 6.0 | 0.00 | 0.38 | 0.34 | 73 | 1013.3 |
| 20260503004625 | 41 | 49 | 1.0 | 6.0 | 0.00 | 0.38 | 0.34 | 71 | 1013.3 |
| 20260503004018 | 42 | 278 | 0.0 | 2.0 | 0.00 | 0.38 | 0.34 | 69 | 1013.3 |
| 20260503003518 | 43 | 290 | 0.0 | 3.0 | 0.00 | 0.38 | 0.34 | 68 | 1013.2 |
| 20260503003048 | 44 | 310 | 0.0 | 7.0 | 0.00 | 0.38 | 0.34 | 65 | 1013.2 |
| 20260503002520 | 45 | 345 | 2.0 | 7.0 | 0.00 | 0.38 | 0.34 | 56 | 1013.2 |
| 20260503002021 | 45 | 169 | 1.0 | 4.0 | 0.00 | 0.38 | 0.34 | 49 | 1013.2 |
| 20260503001556 | 45 | 198 | 1.0 | 4.0 | 0.00 | 0.38 | 0.34 | 52 | 1013.2 |
| 20260503001020 | 46 | 267 | 2.0 | 8.0 | 0.00 | 0.38 | 0.34 | 49 | 1013.1 |
| 20260503000522 | 46 | 249 | 3.0 | 8.0 | 0.00 | 0.38 | 0.34 | 50 | 1013.0 |
| 20260503000046 | 46 | 199 | 2.0 | 4.0 | 0.00 | 0.38 | 0.34 | 51 | 1013.0 |
| 20260502235518 | 46 | 326 | 1.0 | 8.0 | 0.00 | 0.38 | 0.34 | 51 | 1012.9 |
| 20260502235020 | 46 | 246 | 1.0 | 8.0 | 0.00 | 0.38 | 0.34 | 50 | 1012.8 |
| 20260502234543 | 46 | 150 | 2.0 | 7.0 | 0.00 | 0.38 | 0.34 | 51 | 1012.8 |
| 20260502234019 | 46 | 245 | 0.0 | 3.0 | 0.00 | 0.38 | 0.34 | 60 | 1012.8 |
| 20260502233518 | 46 | 138 | 0.0 | 2.0 | 0.00 | 0.38 | 0.34 | 54 | 1012.8 |
| 20260502233037 | 47 | 162 | 0.0 | 2.0 | 0.00 | 0.38 | 0.34 | 53 | 1012.7 |
| 20260502232520 | 47 | 110 | 0.0 | 9.0 | 0.00 | 0.38 | 0.34 | 53 | 1012.5 |
| 20260502232018 | 47 | 100 | 2.0 | 9.0 | 0.00 | 0.38 | 0.34 | 49 | 1012.5 |
| 20260502231535 | 47 | 77 | 1.0 | 2.0 | 0.00 | 0.38 | 0.34 | 51 | 1012.4 |
| 20260502231020 | 47 | 227 | 1.0 | 9.0 | 0.00 | 0.38 | 0.34 | 53 | 1012.5 |
| 20260502230522 | 47 | 338 | 2.0 | 9.0 | 0.00 | 0.38 | 0.34 | 51 | 1012.5 |
| 20260502230037 | 47 | 150 | 1.0 | 3.0 | 0.00 | 0.38 | 0.34 | 54 | 1012.4 |
| 20260502225518 | 48 | 129 | 1.0 | 6.0 | 0.00 | 0.38 | 0.34 | 56 | 1012.2 |
| 20260502225020 | 48 | 146 | 2.0 | 7.0 | 0.00 | 0.38 | 0.34 | 49 | 1012.3 |
| 20260502224537 | 49 | 341 | 0.0 | 7.0 | 0.00 | 0.38 | 0.34 | 51 | 1012.3 |
| 20260502224023 | 49 | 22 | 2.0 | 7.0 | 0.00 | 0.38 | 0.34 | 49 | 1012.2 |
| 20260502223523 | 50 | 205 | 1.0 | 4.0 | 0.00 | 0.38 | 0.34 | 48 | 1012.1 |
| 20260502223037 | 50 | 250 | 1.0 | 5.0 | 0.00 | 0.38 | 0.34 | 50 | 1012.1 |
| 20260502222520 | 51 | 326 | 2.0 | 8.0 | 0.00 | 0.38 | 0.34 | 52 | 1012.1 |
| 20260502222022 | 51 | 36 | 2.0 | 8.0 | 0.00 | 0.38 | 0.34 | 45 | 1011.9 |
| 20260502221541 | 52 | 169 | 2.0 | 6.0 | 0.00 | 0.38 | 0.34 | 46 | 1012.0 |
| 20260502221020 | 52 | 323 | 3.0 | 6.0 | 0.00 | 0.38 | 0.34 | 47 | 1012.1 |
| 20260502220519 | 53 | 214 | 2.0 | 6.0 | 0.00 | 0.38 | 0.34 | 49 | 1011.8 |
| 20260502220038 | 53 | 259 | 2.0 | 15.0 | 0.00 | 0.38 | 0.34 | 48 | 1011.8 |
| 20260502215519 | 53 | 157 | 2.0 | 15.0 | 0.00 | 0.38 | 0.34 | 48 | 1011.5 |
| 20260502215019 | 53 | 283 | 5.0 | 15.0 | 0.00 | 0.38 | 0.34 | 44 | 1011.7 |
| 20260502214540 | 53 | 160 | 4.0 | 10.0 | 0.00 | 0.38 | 0.34 | 45 | 1011.6 |
| 20260502214020 | 54 | 224 | 2.0 | 4.0 | 0.00 | 0.38 | 0.34 | 46 | 1011.6 |